Location: *
(46.1866°S, 178.5290°W)
Time: 05:20:27
(UTC+00:00)

CZ-4B R/B - Pass Details

Date: 22 September 2021
Orbit: 809 x 881 km, 99.1° (Epoch: 17 October)

Event Time Altitude Azimuth Distance (km) Brightness Sun altitude
Rises 16:23:25 0° 60° (ENE) 3,431 7.1 -14.3°
Reaches altitude 10° 16:26:21 10° 76° (ENE) 2,490 6.6 -13.8°
Maximum altitude 16:30:18 21° 122° (ESE) 1,844 6.0 -13.1°
Drops below altitude 10° 16:34:14 10° 168° (SSE) 2,475 6.0 -12.5°
Sets 16:37:08 0° 183° (S) 3,405 6.5 -12.0°
